Tracking 20623 objects as of 2-Apr-2020
HD Live streaming from Space Station
objects crossing your sky now

MICROMAS 2A

Track MICROMAS 2A now!
10-day predictions
MICROMAS 2A is classified as:


NORAD ID: 43131
Int'l Code: 2018-004W
Perigee: 492.3 km
Apogee: 503.4 km
Inclination: 97.5 °
Period: 94.4 minutes
Semi major axis: 6868 km
RCS: Unknown
Launch date: January 12, 2018
Source: United States (US)
Launch site: SRIHARIKOTA (SRI)

MICROMAS 2A is a 3U cubesat from MIT Lincoln Lab, designed for microwave radiometry of tropical weather.
aabbcc
Your satellite tracking list
Your tracking list is empty




NASA's NSSDC Master Catalog

Two Line Element Set (TLE):
1 43131U 18004W   20093.34490655  .00001904  00000-0  79140-4 0  9994
2 43131  97.4541 165.6910 0008053 327.7938  32.2807 15.25020009123492
Source of the keplerian elements: AFSPC